INTELSAT 902 (IS-902)

Last updated on Tue Sep 22 2026 00:03:10 GMT+0000 (Coordinated Universal Time)

1 26900U 01039A 26264.40786365 -.00000284 00000+0 00000+0 0 9992 2 26900 6.3537 70.5633 0004035 110.6509 275.7979 1.00271828 91668
UTC large
Height (km)
Speed (km/s)
/
Latitude / Longitude
Inclination (degrees)
Orbital Period (minutes)
Azimuth
Elevation
Range (km)
Doppler Factor

Next 0 passes for location: London (51.5072 / 0.1276)

No passes found over London.
INTELSAT 902 (IS-902)